Location: Unspecified
(54.1780°N, 0.0000°E)
Time: 23:38:48
(UTC+00:00)

S-56A Canister/Altair - Pass Details

Date: 03 October 2020
Orbit: 633 x 2499 km, 38.9° (Epoch: 29 October)

Event Time Altitude Azimuth Distance (km) Brightness Sun altitude
Rises 18:44:06 0° 275° (W) 6,145 14.3 -11.6°
Reaches altitude 10° 18:49:28 10° 263° (W) 5,007 13.0 -12.4°
Maximum altitude 18:58:57 22° 220° (SW) 3,657 11.3 -13.7°
Drops below altitude 10° 19:06:50 10° 175° (S) 4,052 11.0 -14.9°
Sets 19:10:36 0° 161° (SSE) 4,737 11.2 -15.4°
